Погода в Азанове

Россия / Республика Марий Эл     56°43′05″N   48°13′20″E
темп.,
°C
ветер,
м/с
пор.,
м/с
влажн.,
%
обл.,
%
осадки,
мм/ч
давл.,
гПа
погр.,
м
17 мая, пн
пн1700:00+16юз228934 0.1 101527
03:00+15зюз119578 3.2 101611
06:00+18ю2387100 2.5 1016131
09:00+22з236899 2.5 1017489
12:00+25сз23485 0.0 10171252
15:00+26с33485 0.0 10171022
18:00+23с346557 0.0 101793
21:00+18всв33715 0.1 101824
18 мая, вт
вт1800:00+16всв337611 0.1 101843
03:00+15в368345 0.4 101990
06:00+17в387928 0.0 1019220
09:00+22в45595 0.0 1020613
12:00+25всв555332 0.0 1019996
15:00+25всв55515 0.0 1019873
18:00+22в48626 0.0 1019268
21:00+17в411696 0.0 1020193
19 мая, ср
ср1900:00+15вюв411717 0.0 1020184
03:00+14вюв411739 0.0 1020197
06:00+16вюв5117376 0.0 1020359
09:00+21юв68555 0.0 1020880
12:00+24юв67424 0.0 10201349
15:00+24юв57425 0.0 10191428
18:00+22юв48560 0.0 1019255
21:00+16вюв412690 0.0 1019215
20 мая, чт
чт2000:00+16юв513665 0.0 1019271
03:00+13юв411733 0.0 1019218
06:00+16юв49715 0.0 1019254
09:00+22юв69485 0.0 1019984
12:00+23юв8103939 0.0 10181494
15:00+23юв6944100 0.0 10181632
18:00+20юв5955100 0.0 1017280
21:00+15юв4116960 0.0 1017182
21 мая, пт
пт2100:00+14юв410699 0.0 1017174
03:00+13юв49705 0.0 1017146
06:00+15юв41069100 0.0 1017245
09:00+20ююв585179 0.0 1017750
12:00+24ююв78385 0.0 10162654
15:00+24ю684022 0.0 10152885
18:00+20ю5105126 0.0 1014365
21:00+15ююз3119199 0.8 1015311